DW6462 Weather Reports


Display with metric or nautical units.
time (UTC)temp
F
wind
direction
speed
MPH
gust
MPH
rain 1hr
in
rain 24hr
in
rain mn
in
humidity
%
barometer
mb
20260510230343 71 360 0.0 1.0 0.00 0.00 0.00 61 1015.8
20260510225354 71 360 0.0 5.0 0.00 0.00 0.00 63 1015.5
20260510224847 71 360 2.0 6.0 0.00 0.00 0.00 62 1015.5
20260510224340 71 5 1.0 6.0 0.00 0.00 0.00 65 1015.5
20260510223835 71 348 2.0 5.0 0.00 0.00 0.00 65 1015.5
20260510223348 71 346 1.0 6.0 0.00 0.00 0.00 62 1015.5
20260510222339 71 30 1.0 7.0 0.00 0.00 0.00 64 1015.6
20260510221835 72 28 2.0 7.0 0.00 0.00 0.00 64 1015.7
20260510221349 72 360 2.0 6.0 0.00 0.00 0.00 64 1015.6
20260510220842 72 18 2.0 6.0 0.00 0.00 0.00 66 1015.6
20260510220336 72 360 2.0 7.0 0.00 0.00 0.00 65 1015.6
20260510215850 72 13 3.0 7.0 0.00 0.00 0.00 64 1015.6
20260510215344 72 5 2.0 5.0 0.00 0.00 0.00 65 1015.5
20260510214837 72 355 1.0 5.0 0.00 0.00 0.00 63 1015.6
20260510214351 72 14 2.0 6.0 0.00 0.00 0.00 64 1015.6
20260510213847 71 19 2.0 6.0 0.00 0.00 0.00 64 1015.6
20260510213340 71 350 1.0 7.0 0.00 0.00 0.00 63 1015.5
20260510212337 71 22 3.0 10.0 0.00 0.00 0.00 62 1015.6
20260510211852 72 27 2.0 7.0 0.00 0.00 0.00 64 1015.6
20260510211346 72 360 3.0 7.0 0.00 0.00 0.00 65 1015.6
20260510210840 72 5 3.0 7.0 0.00 0.00 0.00 66 1015.6
20260510210336 72 348 2.0 7.0 0.00 0.00 0.00 64 1015.5
20260510205850 72 17 1.0 5.0 0.00 0.00 0.00 65 1015.4
20260510205346 72 350 2.0 8.0 0.00 0.00 0.00 63 1015.4
20260510204838 72 360 4.0 9.0 0.00 0.00 0.00 62 1015.4
20260510204353 72 346 4.0 9.0 0.00 0.00 0.00 64 1015.5
20260510203847 72 13 4.0 12.0 0.00 0.00 0.00 63 1015.5
20260510203342 72 355 8.0 12.0 0.00 0.00 0.00 61 1015.5
20260510202835 72 351 6.0 12.0 0.00 0.00 0.00 63 1015.6
20260510202349 72 350 6.0 11.0 0.00 0.00 0.00 60 1015.6
20260510201844 73 9 4.0 16.0 0.00 0.00 0.00 63 1015.7
20260510201338 73 5 5.0 13.0 0.00 0.00 0.00 62 1015.6
20260510200834 72 95 4.0 11.0 0.00 0.00 0.00 67 1015.7
20260510200347 72 355 6.0 9.0 0.00 0.00 0.00 68 1015.6
20260510195338 72 5 5.0 9.0 0.00 0.00 0.00 69 1015.6
20260510194836 73 323 2.0 11.0 0.00 0.00 0.00 70 1015.7
20260510194350 73 355 5.0 13.0 0.00 0.00 0.00 69 1015.6
20260510193337 75 5 6.0 11.0 0.00 0.00 0.00 67 1015.5
20260510192852 75 355 2.0 9.0 0.00 0.00 0.00 65 1015.4
20260510192345 75 355 6.0 9.0 0.00 0.00 0.00 65 1015.4
20260510191837 75 348 4.0 9.0 0.00 0.00 0.00 65 1015.4
20260510191352 75 343 3.0 9.0 0.00 0.00 0.00 67 1015.3
20260510190845 75 332 5.0 9.0 0.00 0.00 0.00 63 1015.3
20260510190339 75 315 1.0 8.0 0.00 0.00 0.00 64 1015.3
20260510185351 75 297 3.0 8.0 0.00 0.00 0.00 64 1015.3
20260510184846 75 355 5.0 8.0 0.00 0.00 0.00 63 1015.2
20260510184340 75 344 1.0 7.0 0.00 0.00 0.00 65 1015.3
20260510183851 75 355 4.0 7.0 0.00 0.00 0.00 65 1015.4
20260510183343 75 71 3.0 8.0 0.00 0.00 0.00 63 1015.3
20260510182837 75 325 4.0 8.0 0.00 0.00 0.00 62 1015.2
20260510182350 75 47 3.0 7.0 0.00 0.00 0.00 63 1015.2
20260510181846 75 94 3.0 10.0 0.00 0.00 0.00 65 1015.3
20260510181341 75 327 5.0 10.0 0.00 0.00 0.00 63 1015.2
20260510180833 75 80 2.0 4.0 0.00 0.00 0.00 65 1015.3
20260510180348 75 17 3.0 6.0 0.00 0.00 0.00 64 1015.4
20260510175848 74 5 2.0 6.0 0.00 0.00 0.00 63 1015.3
20260510175340 74 339 1.0 6.0 0.00 0.00 0.00 65 1015.5
20260510174835 74 355 2.0 6.0 0.00 0.00 0.00 65 1015.5
20260510174349 75 350 1.0 6.0 0.00 0.00 0.00 64 1015.5
20260510173845 74 22 0.0 3.0 0.00 0.00 0.00 64 1015.5
20260510173340 73 331 2.0 5.0 0.00 0.00 0.00 63 1015.7
20260510172835 73 118 2.0 7.0 0.00 0.00 0.00 65 1015.7
20260510172350 73 343 1.0 8.0 0.00 0.00 0.00 66 1015.8
20260510171846 72 333 3.0 8.0 0.00 0.00 0.00 65 1015.8
20260510171339 72 344 2.0 5.0 0.00 0.00 0.00 65 1015.9
20260510170835 72 31 3.0 7.0 0.00 0.00 0.00 65 1015.9
20260510170350 72 342 4.0 7.0 0.00 0.00 0.00 64 1015.9
20260510165842 73 49 1.0 5.0 0.00 0.00 0.00 66 1016.0
20260510165336 73 62 2.0 5.0 0.00 0.00 0.00 64 1016.0
20260510164851 73 77 2.0 5.0 0.00 0.00 0.00 66 1016.0
20260510164344 72 44 1.0 6.0 0.00 0.00 0.00 69 1016.0
20260510163839 72 340 2.0 6.0 0.00 0.00 0.00 67 1016.1
20260510162834 72 355 4.0 9.0 0.00 0.00 0.00 66 1016.0
20260510162347 72 49 3.0 9.0 0.00 0.00 0.00 69 1015.9
20260510161841 72 346 3.0 7.0 0.00 0.00 0.00 65 1015.7
20260510161336 72 342 6.0 7.0 0.00 0.00 0.00 63 1015.6
20260510160850 72 343 2.0 7.0 0.00 0.00 0.00 65 1015.6
20260510155840 72 348 1.0 7.0 0.00 0.00 0.00 69 1015.6
20260510154853 71 338 5.0 8.0 0.00 0.00 0.00 65 1015.6
20260510154346 71 348 1.0 6.0 0.00 0.00 0.00 67 1015.5
20260510153841 71 23 4.0 8.0 0.00 0.00 0.00 66 1015.4
20260510153336 71 338 4.0 10.0 0.00 0.00 0.00 67 1015.3
20260510152347 69 342 1.0 6.0 0.00 0.00 0.00 73 1015.4
20260510151341 69 348 2.0 8.0 0.00 0.00 0.00 72 1015.1
20260510150836 69 19 4.0 8.0 0.00 0.00 0.00 73 1015.0
20260510150350 69 27 4.0 6.0 0.00 0.00 0.00 74 1015.0
20260510145339 70 338 3.0 7.0 0.00 0.00 0.00 73 1014.9
20260510144853 71 335 1.0 7.0 0.00 0.00 0.00 70 1014.8
20260510144346 72 355 4.0 7.0 0.00 0.00 0.00 68 1014.7
20260510143840 71 347 1.0 4.0 0.00 0.00 0.00 70 1014.6
20260510143334 71 309 0.0 0.0 0.00 0.00 0.00 70 1014.5
20260510142850 70 223 0.0 0.0 0.00 0.00 0.00 71 1014.5
20260510142347 69 219 0.0 0.0 0.00 0.00 0.00 72 1014.4
20260510141841 69 219 0.0 0.0 0.00 0.00 0.00 72 1014.4
20260510141336 68 219 0.0 0.0 0.00 0.00 0.00 72 1014.4
20260510140849 68 223 0.0 0.0 0.00 0.00 0.00 74 1014.3
20260510140343 67 223 0.0 0.0 0.00 0.00 0.00 75 1014.3
20260510135838 67 223 0.0 0.0 0.00 0.00 0.00 76 1014.3
20260510135352 67 223 0.0 1.0 0.00 0.00 0.00 75 1014.4
20260510134847 66 223 0.0 1.0 0.00 0.00 0.00 76 1014.4
20260510134342 65 211 0.0 0.0 0.00 0.00 0.00 76 1014.4
20260510133352 65 211 0.0 0.0 0.00 0.00 0.00 78 1014.4
20260510132848 64 211 0.0 0.0 0.00 0.00 0.00 78 1014.5
20260510132342 64 211 0.0 0.0 0.00 0.00 0.00 78 1014.5
20260510131835 63 211 0.0 0.0 0.00 0.00 0.00 78 1014.6
20260510131350 63 211 0.0 0.0 0.00 0.00 0.00 78 1014.6
20260510130846 63 211 0.0 0.0 0.00 0.00 0.00 79 1014.5
20260510130342 63 211 0.0 2.0 0.00 0.00 0.00 80 1014.4
20260510125837 62 211 0.0 4.0 0.00 0.00 0.00 80 1014.4
20260510125334 62 222 1.0 5.0 0.00 0.00 0.00 83 1014.2
20260510124847 62 155 1.0 5.0 0.00 0.00 0.00 83 1014.1
20260510124341 61 200 1.0 3.0 0.00 0.00 0.00 84 1014.1
20260510123835 61 231 1.0 3.0 0.00 0.00 0.00 85 1014.1
20260510123349 61 230 0.0 4.0 0.00 0.00 0.00 85 1014.0
20260510122843 61 230 0.0 4.0 0.00 0.00 0.00 85 1014.0
20260510122337 60 229 0.0 1.0 0.00 0.00 0.00 85 1013.9
20260510121852 60 229 0.0 1.0 0.00 0.00 0.00 85 1014.0
20260510121347 61 229 0.0 3.0 0.00 0.00 0.00 85 1014.0
20260510120842 60 229 0.0 5.0 0.00 0.00 0.00 85 1013.9
20260510120337 60 221 1.0 4.0 0.00 0.00 0.00 86 1013.8
20260510115851 60 219 1.0 3.0 0.00 0.00 0.00 87 1013.7
20260510114842 60 223 0.0 0.0 0.00 0.00 0.00 87 1013.4
20260510114335 60 223 0.0 0.0 0.00 0.00 0.00 88 1013.3
20260510113850 60 223 0.0 0.0 0.00 0.00 0.00 88 1013.2
20260510113345 59 223 0.0 0.0 0.00 0.00 0.00 88 1013.1
20260510112840 59 223 0.0 1.0 0.00 0.00 0.00 88 1013.1
20260510112333 59 223 0.0 1.0 0.00 0.00 0.00 90 1013.1
20260510111848 59 223 0.0 1.0 0.00 0.00 0.00 91 1012.9
20260510111345 58 223 0.0 1.0 0.00 0.00 0.00 91 1012.9
20260510110840 58 223 0.0 2.0 0.00 0.00 0.00 90 1012.9
20260510110353 59 223 0.0 2.0 0.00 0.00 0.00 91 1012.9
20260510105847 58 118 0.0 0.0 0.00 0.00 0.00 91 1012.8
20260510105342 58 118 0.0 0.0 0.00 0.00 0.00 90 1012.7
20260510104837 58 118 0.0 0.0 0.00 0.00 0.00 89 1012.7
20260510104350 57 118 0.0 0.0 0.00 0.00 0.00 89 1012.7
20260510103844 57 118 0.0 0.0 0.00 0.00 0.00 87 1012.7
20260510103338 57 118 0.0 0.0 0.00 0.00 0.00 86 1012.7
20260510102852 57 118 0.0 0.0 0.00 0.00 0.00 85 1012.6
20260510102346 57 118 0.0 0.0 0.00 0.00 0.00 84 1012.7
20260510101841 57 118 0.0 1.0 0.00 0.00 0.00 84 1012.7
20260510100836 57 118 1.0 2.0 0.00 0.00 0.00 84 1012.7
20260510100351 57 118 0.0 3.0 0.00 0.00 0.00 84 1012.7
20260510095845 57 118 0.0 3.0 0.00 0.00 0.00 84 1012.8
20260510095339 57 92 1.0 2.0 0.00 0.00 0.00 85 1012.9
20260510094833 57 92 1.0 2.0 0.00 0.00 0.00 85 1012.7
20260510093848 58 56 2.0 4.0 0.00 0.00 0.00 87 1012.8
20260510093348 58 122 3.0 4.0 0.00 0.00 0.00 87 1012.3
20260510092844 58 350 2.0 9.0 0.00 0.00 0.00 88 1012.8
20260510091333 57 355 1.0 5.0 0.00 0.00 0.00 94 1012.2
20260510090345 57 212 0.0 0.0 0.00 0.00 0.00 93 1011.8
20260510085839 57 212 0.0 0.0 0.00 0.00 0.00 93 1011.9
20260510084349 58 212 0.0 0.0 0.00 0.00 0.00 92 1011.8
20260510083843 58 212 0.0 0.0 0.00 0.00 0.00 92 1011.7
20260510083338 58 212 0.0 0.0 0.00 0.00 0.00 91 1011.7
20260510082833 58 212 0.0 0.0 0.00 0.00 0.00 91 1011.6
20260510082348 58 212 0.0 0.0 0.00 0.00 0.00 91 1011.4
20260510081842 59 212 0.0 0.0 0.00 0.00 0.00 91 1011.3
20260510081336 59 212 0.0 0.0 0.00 0.00 0.00 91 1011.2
20260510080850 59 212 0.0 0.0 0.00 0.00 0.00 91 1011.1
20260510080342 58 212 0.0 0.0 0.00 0.00 0.00 91 1011.0
20260510075837 59 212 0.0 0.0 0.00 0.00 0.00 91 1011.0
20260510074849 59 212 0.0 0.0 0.00 0.00 0.00 91 1011.0
20260510073840 59 212 0.0 0.0 0.00 0.00 0.00 92 1011.2
20260510073335 59 212 0.0 0.0 0.00 0.00 0.00 92 1011.2
20260510072345 59 212 0.0 0.0 0.00 0.00 0.00 91 1011.2
20260510071844 60 212 0.0 0.0 0.00 0.00 0.00 91 1011.3
20260510071339 60 212 0.0 0.0 0.00 0.00 0.00 91 1011.3
20260510070853 60 212 0.0 0.0 0.00 0.00 0.00 91 1011.2
20260510070349 60 212 0.0 0.0 0.00 0.00 0.00 91 1011.2
20260510065842 60 212 0.0 0.0 0.00 0.00 0.00 91 1011.0
20260510065338 60 212 0.0 0.0 0.00 0.00 0.00 91 1011.0
20260510064833 60 212 0.0 0.0 0.00 0.00 0.00 91 1011.0
20260510064347 60 212 0.0 0.0 0.00 0.00 0.00 91 1011.0
20260510063841 61 212 0.0 0.0 0.00 0.00 0.00 91 1010.9
20260510063334 60 212 0.0 0.0 0.00 0.00 0.00 91 1010.8
20260510062848 60 212 0.0 0.0 0.00 0.00 0.00 91 1010.8
20260510062342 60 212 0.0 0.0 0.00 0.00 0.00 91 1010.8
20260510061837 60 212 0.0 0.0 0.00 0.00 0.00 92 1010.9
20260510060851 60 212 0.0 0.0 0.00 0.00 0.00 92 1010.9
20260510060346 60 212 0.0 0.0 0.00 0.00 0.00 92 1011.0
20260510055840 60 212 0.0 0.0 0.00 0.00 0.00 92 1011.0
20260510055333 60 212 0.0 0.0 0.00 0.00 0.00 92 1011.0
20260510054848 60 212 0.0 0.0 0.00 0.00 0.00 91 1010.8
20260510054347 60 212 0.0 0.0 0.00 0.00 0.00 91 1010.8
20260510053841 61 212 0.0 0.0 0.00 0.00 0.00 92 1010.8
20260510053336 61 212 0.0 0.0 0.00 0.00 0.00 91 1010.8
20260510052851 61 212 0.0 0.0 0.00 0.00 0.00 92 1010.8
20260510051843 61 212 0.0 0.0 0.00 0.00 0.00 92 1010.8
20260510051339 61 212 0.0 0.0 0.00 0.00 0.00 92 1010.8
20260510050836 61 212 0.0 0.0 0.00 0.00 0.00 92 1010.8
20260510050351 61 212 0.0 0.0 0.00 0.00 0.00 93 1010.8
20260510045846 61 212 0.0 0.0 0.00 0.00 0.00 93 1010.8
20260510044835 61 212 0.0 0.0 0.00 0.00 0.00 93 1010.7
20260510044348 61 212 0.0 0.0 0.00 0.00 0.00 93 1010.7
20260510042838 61 212 0.0 0.0 0.00 0.00 0.00 92 1010.7
20260510042335 61 212 0.0 0.0 0.00 0.00 0.00 92 1010.6
20260510041849 61 212 0.0 0.0 0.00 0.00 0.00 92 1010.6
20260510041344 61 212 0.0 0.0 0.00 0.00 0.00 92 1010.6
20260510040840 61 212 0.0 0.0 0.00 0.00 0.00 92 1010.6
20260510040334 61 212 0.0 0.0 0.00 0.00 0.00 91 1010.7
20260510035847 61 212 0.0 0.0 0.00 0.00 0.00 91 1010.7
20260510035345 61 212 0.0 0.0 0.00 0.00 0.00 91 1010.7
20260510034839 62 212 0.0 0.0 0.00 0.00 0.00 91 1010.7
20260510034353 62 213 0.0 0.0 0.00 0.00 0.00 90 1010.6
20260510033846 62 213 0.0 0.0 0.00 0.00 0.00 89 1010.7
20260510032334 62 213 0.0 0.0 0.00 0.00 0.00 89 1010.7
20260510031346 62 213 0.0 0.0 0.00 0.00 0.00 89 1010.7
20260510030842 62 213 0.0 0.0 0.00 0.00 0.00 88 1010.6
20260510030336 62 213 0.0 0.0 0.00 0.00 0.00 87 1010.6
20260510025833 63 213 0.0 0.0 0.00 0.00 0.00 88 1010.6
20260510025349 63 213 0.0 0.0 0.00 0.00 0.00 87 1010.6
20260510024844 63 213 0.0 0.0 0.00 0.00 0.00 87 1010.6
20260510024338 63 213 0.0 0.0 0.00 0.00 0.00 85 1010.5
20260510023833 63 213 0.0 0.0 0.00 0.00 0.00 85 1010.5
20260510023349 63 213 0.0 0.0 0.00 0.00 0.00 84 1010.4
20260510022340 64 213 0.0 0.0 0.00 0.00 0.00 83 1010.3
20260510021836 64 213 0.0 0.0 0.00 0.00 0.00 81 1010.3
20260510021351 64 213 0.0 0.0 0.00 0.00 0.00 81 1010.3
20260510020846 64 213 0.0 0.0 0.00 0.00 0.00 80 1010.2
20260510020346 65 213 0.0 0.0 0.00 0.00 0.00 80 1010.1
20260510015839 65 213 0.0 0.0 0.00 0.00 0.00 79 1010.0
20260510015334 65 213 0.0 0.0 0.00 0.00 0.00 78 1009.9
20260510014349 66 213 0.0 0.0 0.00 0.00 0.00 76 1009.8
20260510013843 66 213 0.0 0.0 0.00 0.00 0.00 76 1009.7
20260510012852 67 213 0.0 0.0 0.00 0.00 0.00 74 1009.6
20260510012345 67 213 0.0 0.0 0.00 0.00 0.00 73 1009.5
20260510011840 68 213 0.0 0.0 0.00 0.00 0.00 72 1009.4
20260510011334 68 213 0.0 0.0 0.00 0.00 0.00 71 1009.4
20260510010848 68 213 0.0 0.0 0.00 0.00 0.00 70 1009.3
20260510010340 69 213 0.0 0.0 0.00 0.00 0.00 69 1009.2
20260510005834 69 213 0.0 0.0 0.00 0.00 0.00 70 1009.2
20260510005346 69 213 0.0 0.0 0.00 0.00 0.00 68 1009.2
20260510004841 70 213 0.0 0.0 0.00 0.00 0.00 68 1009.0
20260510004335 70 213 0.0 0.0 0.00 0.00 0.00 68 1008.9
20260510003849 71 213 0.0 0.0 0.00 0.00 0.00 66 1008.9
20260510003343 71 213 0.0 0.0 0.00 0.00 0.00 65 1008.9
20260510002337 73 213 0.0 0.0 0.00 0.00 0.00 60 1008.8
20260510001347 74 213 0.0 0.0 0.00 0.00 0.00 57 1008.7
20260510000338 75 213 0.0 0.0 0.00 0.00 0.00 58 1008.5
20260509235853 75 213 0.0 2.0 0.00 0.00 0.00 60 1008.5
20260509235344 76 213 0.0 2.0 0.00 0.00 0.00 59 1008.5
20260509234839 76 202 0.0 4.0 0.00 0.00 0.00 57 1008.4
20260509234354 77 202 1.0 4.0 0.00 0.00 0.00 56 1008.4
20260509233849 77 217 1.0 3.0 0.00 0.00 0.00 58 1008.4
20260509233344 77 213 2.0 5.0 0.00 0.00 0.00 59 1008.5
20260509232840 78 213 3.0 5.0 0.00 0.00 0.00 54 1008.5
20260509232334 78 220 2.0 5.0 0.00 0.00 0.00 52 1008.5
20260509231849 78 225 3.0 4.0 0.00 0.00 0.00 54 1008.5
20260509231343 79 213 1.0 5.0 0.00 0.00 0.00 50 1008.5
20260509230835 79 215 4.0 5.0 0.00 0.00 0.00 47 1008.6